Home > Weather > Shepparton > Past weeks

Flag for Australia Past Weather in Shepparton, Victoria, Australia — Yesterday and Last 2 Weeks

Now
43 °F

Quite cool.


Feels Like: 42 °F
Forecast: 39 / 51 °F
Wind: 3 mph from Northwest

Location: Mangalore Airport

Current Time: Jul 28, 2016 at 3:25:50 AM

Latest Report: Jul 28, 2016 at 2:00 AM


Visibility: N/A

Pressure: 30.26 "Hg

Humidity: 87%

Dew Point: 40 °F

Location of SheppartonLocation

Past Weather in Shepparton — Graph

°F

Shepparton Temperature Yesterday

Maximum temperature yesterday: 53 °F (at 2:00 PM)
Minimum temperature yesterday: 43 °F (at 5:00 AM)
Average temperature yesterday: 47 °F

High & Low Weather Summary for the Past Weeks

 TemperatureHumidityPressure
High61 °F (Jul 22, 8:00 AM)100% (Jul 14, 11:00 PM)30.52 "Hg (Jul 14, 11:00 PM)
Low31 °F (Jul 17, 8:00 AM)51% (Jul 23, 2:00 PM)29.41 "Hg (Jul 23, 12:00 AM)
Average48 °F88%30.08 "Hg
* Reported Jul 13 2:00 AM — Jul 28 2:00 AM, Shepparton, Weather by CustomWeather, © 2016

Note: Actual official high and low records may vary slightly from our data, if they occured in-between our weather recording intervals... More about our weather records

Advertising

Shepparton Weather History for the Previous 24 Hours

Scroll right to see more
 ConditionsComfort  
Time TempWeatherWind HumidityBarometerVisibility
2:00 AM
Thu, Jul 28
43 °FQuite cool.3 mph87%30.26 "HgN/A
12:00 AM45 °FOvercast.5 mph86%30.24 "HgN/A
11:00 PM
Wed, Jul 27
45 °FQuite cool.6 mph85%30.23 "HgN/A
9:00 PM48 °FOvercast.8 mph71%30.24 "HgN/A
8:00 PM48 °FCool.8 mph73%30.21 "HgN/A
6:00 PM49 °FOvercast.9 mph67%30.15 "HgN/A
5:00 PM50 °FCool.9 mph64%30.12 "HgN/A
3:00 PM52 °FOvercast.8 mph62%30.06 "HgN/A
2:00 PM53 °FCool.9 mph59%30.04 "HgN/A
12:00 PM50 °FOvercast.15 mph81%30.01 "HgN/A
11:00 AM51 °FCool.9 mph93%30.00 "HgN/A
9:00 AM47 °FLow clouds.1 mph100%29.93 "HgN/A
8:00 AM45 °FCool.3 mph100%29.90 "HgN/A
6:00 AM43 °FOvercast.2 mph99%29.83 "HgN/A
5:00 AM43 °FQuite cool.3 mph99%29.79 "HgN/A
3:00 AM45 °FLow clouds.8 mph99%29.75 "Hg2 mi
Weather by CustomWeather, © 2016

See weather overviewHow to use our weather pages